Tracking 27122 objects as of 26-Mar-2023
HD Live streaming from Space Station
objects crossing your sky now

STARLINK-1926

Track STARLINK-1926 now!
10-day predictions
STARLINK-1926 is classified as:


NORAD ID: 46757
Int'l Code: 2020-074U
Perigee: 552.7 km
Apogee: 555.8 km
Inclination: 53.1 °
Period: 95.6 minutes
Semi major axis: 6925 km
RCS: Unknown
Launch date: October 24, 2020
Source: United States (US)
Launch site: AIR FORCE EASTERN TEST RANGE (AFETR)
Your satellite tracking list
Your tracking list is empty




NASA's NSSDC Master Catalog

Two Line Element Set (TLE):
1 46757U 20074U   23084.85927032  .00000937  00000-0  81771-4 0  9992
2 46757  53.0536 134.4077 0002289  69.4724 290.6511 15.06430784133843
Source of the keplerian elements: AFSPC